Flag for Slovenia Weather past 2 weeks in Celje, Slovenia

Now
71 °F

Mild.


Feels Like: 76 °F
Forecast: 47 / 66 °F
Wind: 1 mph from North

Location: Celje

Current Time: Sep 30, 2014 at 2:17:33 PM

Latest Report: Sep 30, 2014 at 1:00 PM


Visibility: N/A

Pressure: 30.27 "Hg

Humidity: 61%

Dew point: 57 °F

Location of CeljeLocation

Historic Weather in Celje — Graph

°F

Celje temperature yesterday

Maximum temperature yesterday: 76 °F (at 4:00 PM)
Minimum temperature yesterday: 45 °F (at 3:00 AM)
Average temperature yesterday: 57 °F

Past Weeks' High & Low Weather Summary

 TemperatureHumidityPressure
High80 °F (Sep 21, 3:00 PM)100% (Sep 17, 6:00 AM)30.43 "Hg (Sep 17, 6:00 AM)
Low42 °F (Sep 24, 7:00 AM)39% (Sep 23, 2:00 PM)29.82 "Hg (Sep 21, 6:00 PM)
Average59 °F85%30.11 "Hg
* Reported Sep 15 1:00 PM — Sep 30 1:00 PM, Celje, Weather by CustomWeather, © 2014

Note: Actual official high and low records may vary slightly from our data, if they occured in-between our weather recording intervals... More about our weather records

Advertising

Celje weather history for previous 24 hours

 ConditionsComfort  
Time TempWeatherWind HumidityBarometerVisibility
1:00 PM
Sep 30
71 °FMild.1 mph61%30.27 "HgN/A
12:00 PM67 °FMild.1 mph64%30.28 "HgN/A
11:00 AM66 °FMild.1 mph70%30.29 "HgN/A
10:00 AM61 °FCool.1 mph80%30.30 "HgN/A
9:00 AM57 °FCool.1 mph91%30.30 "HgN/A
8:00 AM51 °FPassing clouds.1 mph99%30.31 "Hg31 mi
7:00 AM49 °FSunny.2 mph99%30.29 "Hg22 mi
6:00 AM49 °FClear.2 mph99%30.29 "Hg19 mi
5:00 AM49 °FClear.3 mph99%30.29 "Hg19 mi
4:00 AM47 °FCool.1 mph98%30.29 "HgN/A
3:00 AM49 °FCool.1 mph99%30.29 "HgN/A
2:00 AM50 °FCool.1 mph99%30.29 "HgN/A
1:00 AM50 °FCool.1 mph98%30.29 "HgN/A
12:00 AM52 °FCool.1 mph98%30.30 "HgN/A
11:00 PM
Sep 29
53 °FCool.No wind97%30.30 "HgN/A
10:00 PM55 °FCool.1 mph96%30.31 "HgN/A
9:00 PM56 °FCool.1 mph94%30.30 "HgN/A
8:00 PM60 °FPassing clouds.1 mph81%30.29 "Hg31 mi
7:00 PM64 °FMild.2 mph80%30.27 "HgN/A
6:00 PM72 °FMild.1 mph65%30.25 "HgN/A
5:00 PM76 °FMild.1 mph56%30.25 "HgN/A
4:00 PM76 °FMild.2 mph55%30.26 "HgN/A
3:00 PM75 °FScattered clouds.1 mph56%30.27 "Hg28 mi
2:00 PM71 °FScattered clouds.1 mph61%30.29 "Hg25 mi
Weather by CustomWeather, © 2014

See weather overviewHow to use our weather pages